Year,Month,Day,Hour,Minute,Value (Times are PST for temperature in C)
2023,05,26,07,49,16.50
2023,05,26,07,50,16.60
2023,05,26,07,51,16.60
2023,05,26,07,52,16.70
2023,05,26,07,53,16.70
2023,05,26,07,54,16.80
2023,05,26,07,55,16.90
2023,05,26,07,56,16.90
2023,05,26,07,57,17.00
2023,05,26,07,58,17.00
2023,05,26,07,59,17.10
2023,05,26,08,00,17.10
2023,05,26,08,01,17.20
2023,05,26,08,02,17.30
2023,05,26,08,03,17.30
2023,05,26,08,04,17.40
2023,05,26,08,05,17.50
2023,05,26,08,06,17.50
2023,05,26,08,07,17.60
2023,05,26,08,08,17.60
2023,05,26,08,09,17.70
2023,05,26,08,10,17.70
2023,05,26,08,11,17.70
2023,05,26,08,12,17.70
2023,05,26,08,13,17.70
2023,05,26,08,14,17.70
2023,05,26,08,15,17.70
2023,05,26,08,16,17.70
2023,05,26,08,17,17.70
2023,05,26,08,18,17.70
2023,05,26,08,19,17.70
2023,05,26,08,20,17.70
2023,05,26,08,21,17.70
2023,05,26,09,12,19.10
2023,05,26,09,13,19.10
2023,05,26,09,14,19.20
2023,05,26,09,15,19.20
2023,05,26,09,16,19.30
2023,05,26,09,17,19.30
2023,05,26,09,18,19.30
2023,05,26,09,19,19.40
2023,05,26,09,20,19.40
2023,05,26,09,21,19.40
2023,05,26,09,22,19.40
2023,05,26,09,23,19.40
2023,05,26,09,24,19.40
2023,05,26,09,25,19.40
2023,05,26,09,26,19.30
2023,05,26,09,27,19.40
2023,05,26,09,28,19.40
2023,05,26,09,29,19.40
2023,05,26,09,30,19.40
2023,05,26,09,31,19.50
2023,05,26,09,32,19.60
2023,05,26,09,33,19.70
2023,05,26,09,34,19.70
2023,05,26,09,35,19.80
2023,05,26,09,36,19.90
2023,05,26,09,37,20.00
2023,05,26,09,38,20.00
2023,05,26,09,39,20.10
2023,05,26,09,40,20.20
2023,05,26,09,41,20.30
2023,05,26,09,42,20.30
2023,05,26,09,43,20.30
2023,05,26,09,44,20.30
2023,05,26,09,45,20.30
2023,05,26,09,46,20.30
2023,05,26,09,47,20.30
2023,05,26,09,48,20.30
2023,05,26,09,49,20.30
2023,05,26,09,50,20.30
2023,05,26,09,51,20.30
2023,05,26,09,52,20.30
2023,05,26,09,53,20.30
2023,05,26,09,54,20.40
2023,05,26,09,55,20.40
2023,05,26,09,56,20.40
2023,05,26,09,57,20.50
2023,05,26,09,58,20.60
2023,05,26,09,59,20.60
2023,05,26,10,00,20.60
2023,05,26,10,01,20.70
2023,05,26,10,02,20.70
2023,05,26,10,03,20.70
2023,05,26,10,04,20.70
2023,05,26,10,05,20.70
2023,05,26,10,06,20.60
2023,05,26,10,07,20.60
2023,05,26,10,08,20.60
2023,05,26,10,09,20.60
2023,05,26,10,10,20.60
2023,05,26,10,11,20.60
2023,05,26,10,12,20.60
2023,05,26,10,13,20.60
2023,05,26,10,14,20.70
2023,05,26,10,15,20.70
2023,05,26,10,16,20.70
2023,05,26,10,17,20.70
2023,05,26,10,18,20.80
2023,05,26,10,19,20.80
2023,05,26,10,20,20.90
2023,05,26,10,21,20.80
2023,05,26,10,22,20.80
2023,05,26,10,23,20.70
2023,05,26,10,24,20.70
2023,05,26,10,25,20.60
2023,05,26,10,26,20.60
2023,05,26,10,27,20.60
2023,05,26,10,28,20.60
2023,05,26,10,29,20.70
2023,05,26,10,30,20.60
2023,05,26,10,31,20.60
2023,05,26,10,32,20.60
2023,05,26,10,33,20.60
2023,05,26,10,34,20.60
2023,05,26,10,35,20.50
2023,05,26,10,36,20.40
2023,05,26,10,37,20.40
2023,05,26,10,38,20.40
2023,05,26,10,39,20.40
2023,05,26,10,40,20.40
2023,05,26,10,41,20.40
2023,05,26,10,42,20.30
2023,05,26,10,43,20.30
2023,05,26,10,44,20.30
2023,05,26,10,45,20.30
2023,05,26,10,46,20.30
2023,05,26,10,47,20.30
2023,05,26,10,48,20.30
2023,05,26,10,49,20.30
2023,05,26,10,50,20.40
2023,05,26,10,51,20.40
2023,05,26,10,52,20.40
2023,05,26,10,53,20.30
2023,05,26,10,54,20.30
2023,05,26,10,55,20.30
2023,05,26,10,56,20.30
2023,05,26,10,57,20.30
2023,05,26,10,58,20.30
2023,05,26,10,59,20.40
2023,05,26,11,00,20.40
2023,05,26,11,01,20.40
2023,05,26,11,02,20.40
2023,05,26,11,03,20.50
2023,05,26,11,04,20.50
2023,05,26,11,05,20.50
2023,05,26,11,06,20.50
2023,05,26,11,07,20.40
2023,05,26,11,08,20.50
2023,05,26,11,09,20.50
2023,05,26,11,10,20.50
2023,05,26,11,11,20.50
2023,05,26,11,12,20.50
2023,05,26,11,13,20.50
2023,05,26,11,14,20.50
2023,05,26,11,15,20.50
2023,05,26,11,16,20.60
2023,05,26,11,17,20.60
2023,05,26,11,18,20.70
2023,05,26,11,19,20.70
2023,05,26,11,20,20.80
2023,05,26,11,21,20.80
2023,05,26,11,22,20.80
2023,05,26,11,23,20.90
2023,05,26,11,24,20.90
2023,05,26,11,25,20.90
2023,05,26,11,26,20.90
2023,05,26,11,27,20.80
2023,05,26,11,28,20.80
2023,05,26,11,29,20.70
2023,05,26,11,30,20.70
2023,05,26,11,31,20.60
2023,05,26,11,32,20.60
2023,05,26,11,33,20.60
2023,05,26,11,34,20.60
2023,05,26,11,35,20.70
2023,05,26,11,36,20.70
2023,05,26,11,37,20.80
2023,05,26,11,38,20.80
2023,05,26,11,39,20.90
2023,05,26,11,40,20.90
2023,05,26,11,41,21.00
2023,05,26,11,42,21.10
2023,05,26,11,43,21.20
2023,05,26,11,44,21.20
2023,05,26,11,45,21.20
2023,05,26,11,46,21.20
2023,05,26,11,47,21.20
2023,05,26,11,48,21.20
2023,05,26,11,49,21.20
2023,05,26,11,50,21.20
2023,05,26,11,51,21.20
2023,05,26,11,52,21.20
2023,05,26,11,53,21.20
2023,05,26,11,54,21.20
2023,05,26,11,55,21.20
2023,05,26,11,56,21.10
2023,05,26,11,57,21.10
2023,05,26,11,58,21.20
2023,05,26,11,59,21.10
2023,05,26,12,00,21.10
2023,05,26,12,01,21.10
2023,05,26,12,02,21.10
2023,05,26,12,03,21.10
2023,05,26,12,04,21.20
2023,05,26,12,05,21.20
2023,05,26,12,06,21.20
2023,05,26,12,07,21.20
2023,05,26,12,08,21.20
2023,05,26,12,09,21.10
2023,05,26,12,10,21.10
2023,05,26,12,11,21.10
2023,05,26,12,12,21.10
2023,05,26,12,13,21.00
2023,05,26,12,14,21.00
2023,05,26,12,15,21.00
2023,05,26,12,16,21.00
2023,05,26,12,17,21.10
2023,05,26,12,18,21.20
2023,05,26,12,19,21.20
2023,05,26,12,20,21.30
2023,05,26,12,21,21.40
2023,05,26,12,22,21.50
2023,05,26,12,23,21.60
2023,05,26,12,24,21.60
2023,05,26,12,25,21.70
2023,05,26,12,26,21.70
2023,05,26,12,27,21.70
2023,05,26,12,28,21.70
2023,05,26,12,29,21.70
2023,05,26,12,30,21.70
2023,05,26,12,31,21.70
2023,05,26,12,32,21.80
2023,05,26,12,33,21.80
2023,05,26,12,34,21.90
2023,05,26,12,35,22.00
2023,05,26,12,36,22.10
2023,05,26,12,37,22.20
2023,05,26,12,38,22.30
2023,05,26,12,39,22.40
2023,05,26,12,40,22.40
2023,05,26,12,41,22.40
2023,05,26,12,42,22.50
2023,05,26,12,43,22.50
2023,05,26,12,44,22.40
2023,05,26,12,45,22.40
2023,05,26,12,46,22.30
2023,05,26,12,47,22.20
2023,05,26,12,48,22.20
2023,05,26,12,49,22.10
2023,05,26,12,50,22.10
2023,05,26,12,51,22.10
2023,05,26,12,52,21.90
2023,05,26,12,53,21.80
2023,05,26,12,54,21.80
2023,05,26,12,55,21.70
2023,05,26,12,56,21.70
2023,05,26,12,57,21.70
2023,05,26,12,58,21.70
2023,05,26,12,59,21.70
2023,05,26,13,00,21.60
2023,05,26,13,01,21.60
2023,05,26,13,02,21.40
2023,05,26,13,03,21.30
2023,05,26,13,04,21.20
2023,05,26,13,05,21.10
2023,05,26,13,06,21.10
2023,05,26,13,07,21.10
2023,05,26,13,08,21.10
2023,05,26,13,09,21.10
2023,05,26,13,10,21.10
2023,05,26,13,11,21.10
2023,05,26,13,12,21.10
2023,05,26,13,13,21.20
2023,05,26,13,14,21.20
2023,05,26,13,15,21.10
2023,05,26,13,16,20.90
2023,05,26,13,17,20.80
2023,05,26,13,18,20.70
2023,05,26,13,19,20.60
2023,05,26,13,20,20.50
2023,05,26,13,21,20.40
2023,05,26,13,22,20.40
2023,05,26,13,23,20.50
2023,05,26,13,24,20.50
2023,05,26,13,25,20.60
2023,05,26,13,26,20.60
2023,05,26,13,27,20.60
2023,05,26,13,28,20.70
2023,05,26,13,29,20.70
2023,05,26,13,30,20.80
2023,05,26,13,31,20.90
2023,05,26,13,32,20.90
2023,05,26,13,33,21.00
2023,05,26,13,34,21.10
2023,05,26,13,35,21.20
2023,05,26,13,36,21.30
2023,05,26,13,37,21.40
2023,05,26,13,38,21.50
2023,05,26,13,39,21.60
2023,05,26,13,40,21.70
2023,05,26,13,41,21.80
2023,05,26,13,42,21.80
2023,05,26,13,43,21.70
2023,05,26,13,44,21.80
2023,05,26,13,45,21.80
2023,05,26,13,46,21.80
2023,05,26,13,47,21.80
2023,05,26,13,48,21.70
2023,05,26,13,49,21.70
2023,05,26,13,50,21.60
2023,05,26,13,51,21.60
2023,05,26,13,52,21.60
2023,05,26,13,53,21.70
2023,05,26,13,54,21.80
2023,05,26,13,55,21.80
2023,05,26,13,56,21.90
2023,05,26,13,57,21.90
2023,05,26,13,58,22.00
2023,05,26,13,59,22.00
2023,05,26,14,00,22.10
2023,05,26,14,01,22.30
2023,05,26,14,02,22.30
2023,05,26,14,03,22.30
2023,05,26,14,04,22.40
2023,05,26,14,05,22.40
2023,05,26,14,06,22.50
2023,05,26,14,07,22.60
2023,05,26,14,08,22.70
2023,05,26,14,09,22.80
2023,05,26,14,10,22.80
2023,05,26,14,11,22.80
2023,05,26,14,12,22.80
2023,05,26,14,13,22.70
2023,05,26,14,14,22.60
2023,05,26,14,15,22.50
2023,05,26,14,16,22.30
2023,05,26,14,17,22.30
2023,05,26,14,18,22.30
2023,05,26,14,19,22.30
2023,05,26,14,20,22.30
2023,05,26,14,21,22.40
2023,05,26,14,22,22.50
2023,05,26,14,23,22.50
2023,05,26,14,24,22.60
2023,05,26,14,25,22.70
2023,05,26,14,26,22.80
2023,05,26,14,27,22.80
2023,05,26,14,28,22.90
2023,05,26,14,29,23.00
2023,05,26,14,30,23.10
2023,05,26,14,31,23.20
2023,05,26,14,32,23.30
2023,05,26,14,33,23.40
2023,05,26,14,34,23.40
2023,05,26,14,35,23.50
2023,05,26,14,36,23.50
2023,05,26,14,37,23.50
2023,05,26,14,38,23.50
2023,05,26,14,39,23.40
2023,05,26,14,40,23.30
2023,05,26,14,41,23.20
2023,05,26,14,42,23.10
2023,05,26,14,43,23.00
2023,05,26,14,44,23.00
2023,05,26,14,45,23.00
2023,05,26,14,46,23.10
2023,05,26,14,47,23.10
2023,05,26,14,48,23.20
2023,05,26,14,49,23.30
2023,05,26,14,50,23.40
2023,05,26,14,51,23.50
2023,05,26,14,52,23.60
2023,05,26,14,53,23.60
2023,05,26,14,54,23.60
2023,05,26,14,55,23.70
2023,05,26,14,56,23.70
2023,05,26,14,57,23.70
2023,05,26,14,58,23.70
2023,05,26,14,59,23.70
2023,05,26,15,00,23.70
2023,05,26,15,01,23.70
2023,05,26,15,02,23.70
2023,05,26,15,03,23.70
2023,05,26,15,04,23.70
2023,05,26,15,05,23.70
2023,05,26,15,06,23.70
2023,05,26,15,07,23.80
2023,05,26,15,08,23.80
2023,05,26,15,09,23.90
2023,05,26,15,10,23.90
2023,05,26,15,11,23.90
2023,05,26,15,12,23.80
2023,05,26,15,13,23.70
2023,05,26,15,14,23.70
2023,05,26,15,15,23.70
2023,05,26,15,16,23.80
2023,05,26,15,17,23.80
2023,05,26,15,18,23.90
2023,05,26,15,19,23.90
2023,05,26,15,20,24.00
2023,05,26,15,21,24.10
2023,05,26,15,22,24.20
2023,05,26,15,23,24.30
2023,05,26,15,24,24.40
2023,05,26,15,25,24.40
2023,05,26,15,26,24.40
2023,05,26,15,27,24.50
2023,05,26,15,28,24.60
2023,05,26,15,29,24.60
2023,05,26,15,30,24.70
2023,05,26,15,31,24.70
2023,05,26,15,32,24.60
2023,05,26,15,33,24.60
2023,05,26,15,34,24.60
2023,05,26,15,35,24.60
2023,05,26,15,36,24.60
2023,05,26,15,37,24.60
2023,05,26,15,38,24.60
2023,05,26,15,39,24.60
2023,05,26,15,40,24.70
2023,05,26,15,41,24.80
2023,05,26,15,42,24.90
2023,05,26,15,43,25.00
2023,05,26,15,44,25.20
2023,05,26,15,45,25.30
2023,05,26,15,46,25.40
2023,05,26,15,47,25.50
2023,05,26,15,48,25.60
2023,05,26,15,49,25.70
2023,05,26,15,50,25.80
2023,05,26,15,51,25.90
2023,05,26,15,52,25.90
2023,05,26,15,53,26.00
2023,05,26,15,54,26.10
2023,05,26,15,55,26.20
2023,05,26,15,56,26.30
2023,05,26,15,57,26.50
2023,05,26,15,58,26.60
2023,05,26,15,59,26.70
2023,05,26,16,00,26.80
2023,05,26,16,01,26.90
2023,05,26,16,02,26.90
2023,05,26,16,03,26.90
2023,05,26,16,04,27.00
2023,05,26,16,05,27.10
2023,05,26,16,06,27.10
2023,05,26,16,07,27.20
2023,05,26,16,08,27.20
2023,05,26,16,09,27.20
2023,05,26,16,10,27.20
2023,05,26,16,11,27.10
2023,05,26,16,12,27.10
2023,05,26,16,13,27.10
2023,05,26,16,14,27.10
2023,05,26,16,15,27.10
2023,05,26,16,16,27.10
2023,05,26,16,17,27.10
2023,05,26,16,18,27.10
2023,05,26,16,19,27.10
2023,05,26,16,20,27.10
2023,05,26,16,21,27.10
2023,05,26,16,22,27.10
2023,05,26,16,23,27.00
2023,05,26,16,24,27.00
2023,05,26,16,25,27.00
2023,05,26,16,26,26.90
2023,05,26,16,27,26.90
2023,05,26,16,28,26.80
2023,05,26,16,29,26.70
2023,05,26,16,30,26.70
2023,05,26,16,31,26.70
2023,05,26,16,32,26.70
2023,05,26,16,33,26.70
2023,05,26,16,34,26.70
2023,05,26,16,35,26.80
2023,05,26,16,36,26.70
2023,05,26,16,37,26.70
2023,05,26,16,38,26.70
2023,05,26,16,39,26.60
2023,05,26,16,40,26.50
2023,05,26,16,41,26.40
2023,05,26,16,42,26.40
2023,05,26,16,43,26.30
2023,05,26,16,44,26.20
2023,05,26,16,45,26.10
2023,05,26,16,46,26.00
2023,05,26,16,47,25.90
2023,05,26,16,48,25.90
2023,05,26,16,49,25.80
2023,05,26,16,50,25.80
2023,05,26,16,51,25.70
2023,05,26,16,52,25.70
2023,05,26,16,53,25.60
2023,05,26,16,54,25.60
2023,05,26,16,55,25.60
2023,05,26,16,56,25.50
2023,05,26,16,57,25.40
2023,05,26,16,58,25.40
2023,05,26,16,59,25.40
2023,05,26,17,00,25.40
2023,05,26,17,01,25.40
2023,05,26,17,02,25.40
2023,05,26,17,03,25.40
2023,05,26,17,04,25.40
2023,05,26,17,05,25.50
2023,05,26,17,06,25.60
2023,05,26,17,07,25.70
2023,05,26,17,08,25.70
2023,05,26,17,09,25.70
2023,05,26,17,10,25.70
2023,05,26,17,11,25.70
2023,05,26,17,12,25.60
2023,05,26,17,13,25.60
2023,05,26,17,14,25.60
2023,05,26,17,15,25.60
2023,05,26,17,16,25.50
2023,05,26,17,17,25.50
2023,05,26,17,18,25.40
2023,05,26,17,19,25.40
2023,05,26,17,20,25.30
2023,05,26,17,21,25.30
2023,05,26,17,22,25.20
2023,05,26,17,23,25.20
2023,05,26,17,24,25.20
2023,05,26,17,25,25.20
2023,05,26,17,26,25.20
2023,05,26,17,27,25.30
2023,05,26,17,28,25.30
2023,05,26,17,29,25.40
2023,05,26,17,30,25.40
2023,05,26,17,31,25.50
2023,05,26,17,32,25.50
2023,05,26,17,33,25.50
2023,05,26,17,34,25.50
2023,05,26,17,35,25.40
2023,05,26,17,36,25.40
2023,05,26,17,37,25.40
2023,05,26,17,38,25.40
2023,05,26,17,39,25.30
2023,05,26,17,40,25.30
2023,05,26,17,41,25.30
2023,05,26,17,42,25.40
2023,05,26,17,43,25.40
2023,05,26,17,44,25.40
2023,05,26,17,45,25.40
2023,05,26,17,46,25.40
2023,05,26,17,47,25.40
2023,05,26,17,48,25.40
2023,05,26,17,49,25.40
2023,05,26,17,50,25.40
2023,05,26,17,51,25.50
2023,05,26,17,52,25.40
2023,05,26,17,53,25.50
2023,05,26,17,54,25.50
2023,05,26,17,55,25.50
2023,05,26,17,56,25.40
2023,05,26,17,57,25.40
2023,05,26,17,58,25.40
2023,05,26,17,59,25.50
2023,05,26,18,00,25.50
2023,05,26,18,01,25.50
2023,05,26,18,02,25.50
2023,05,26,18,03,25.50
2023,05,26,18,04,25.50
2023,05,26,18,05,25.50
2023,05,26,18,06,25.40
2023,05,26,18,07,25.40
2023,05,26,18,08,25.40
2023,05,26,18,09,25.30
2023,05,26,18,10,25.30
2023,05,26,18,11,25.20
2023,05,26,18,12,25.20
2023,05,26,18,13,25.10
2023,05,26,18,14,25.10
2023,05,26,18,15,25.10
2023,05,26,18,16,25.10
2023,05,26,18,17,25.10
2023,05,26,18,18,25.10
2023,05,26,18,19,25.10
2023,05,26,18,20,25.10
2023,05,26,18,21,25.10
2023,05,26,18,22,25.10
2023,05,26,18,23,25.10
2023,05,26,18,24,25.10
2023,05,26,18,25,25.10
2023,05,26,18,26,25.10
2023,05,26,18,27,25.00
2023,05,26,18,28,25.00
2023,05,26,18,29,24.90
2023,05,26,18,30,24.80
2023,05,26,18,31,24.70
2023,05,26,18,32,24.60
2023,05,26,18,33,24.50
2023,05,26,18,34,24.40
2023,05,26,18,35,24.30
2023,05,26,18,36,24.20
2023,05,26,18,37,24.10
2023,05,26,18,38,24.10
2023,05,26,18,39,24.00
2023,05,26,18,40,24.00
2023,05,26,18,41,23.90
2023,05,26,18,42,23.90
2023,05,26,18,43,23.80
2023,05,26,18,44,23.80
2023,05,26,18,45,23.70
2023,05,26,18,46,23.60
2023,05,26,18,47,23.60
2023,05,26,18,48,23.60
2023,05,26,18,49,23.50
2023,05,26,18,50,23.50
2023,05,26,18,51,23.40
2023,05,26,18,52,23.40
2023,05,26,18,53,23.30
2023,05,26,18,54,23.20
2023,05,26,18,55,23.20
2023,05,26,18,56,23.10
2023,05,26,18,57,23.10
2023,05,26,18,58,23.00
2023,05,26,18,59,22.90
2023,05,26,19,00,22.90
2023,05,26,19,01,22.90
2023,05,26,19,02,22.80
2023,05,26,19,03,22.80
2023,05,26,19,04,22.80
2023,05,26,19,05,22.80
2023,05,26,19,06,22.70
2023,05,26,19,07,22.60
2023,05,26,19,08,22.60
2023,05,26,19,09,22.50
2023,05,26,19,10,22.50
2023,05,26,19,11,22.40
2023,05,26,19,12,22.40
2023,05,26,19,13,22.30
2023,05,26,19,14,22.30
2023,05,26,19,15,22.30
2023,05,26,19,16,22.30
2023,05,26,19,17,22.20
2023,05,26,19,18,22.20
2023,05,26,19,19,22.20
2023,05,26,19,20,22.10
2023,05,26,19,21,22.10
2023,05,26,19,22,22.10
2023,05,26,19,23,22.00
2023,05,26,19,24,22.00
2023,05,26,19,25,21.90
2023,05,26,19,26,21.90
2023,05,26,19,27,21.90
2023,05,26,19,28,21.80
2023,05,26,19,29,21.80
2023,05,26,19,30,21.80
2023,05,26,19,31,21.80
2023,05,26,19,32,21.80
2023,05,26,19,33,21.70
2023,05,26,19,34,21.70
2023,05,26,19,35,21.70
2023,05,26,19,36,21.60
2023,05,26,19,37,21.60
2023,05,26,19,38,21.60
2023,05,26,19,39,21.50
2023,05,26,19,40,21.50
2023,05,26,19,41,21.40
2023,05,26,19,42,21.40
2023,05,26,19,43,21.30
2023,05,26,19,44,21.30
2023,05,26,19,45,21.30
2023,05,26,19,46,21.20
2023,05,26,19,47,21.20
2023,05,26,19,48,21.20
2023,05,26,19,49,21.20
2023,05,26,19,50,21.20
2023,05,26,19,51,21.10
2023,05,26,19,52,21.10
2023,05,26,19,53,21.10
2023,05,26,19,54,21.10
2023,05,26,19,55,21.10
2023,05,26,19,56,21.10
2023,05,26,19,57,21.00
2023,05,26,19,58,21.00
2023,05,26,19,59,20.90
2023,05,26,20,00,20.80
2023,05,26,20,01,20.70
2023,05,26,20,02,20.60
2023,05,26,20,03,20.60
2023,05,26,20,04,20.50
2023,05,26,20,05,20.40
2023,05,26,20,06,20.30
2023,05,26,20,07,20.30
2023,05,26,20,08,20.20
2023,05,26,20,09,20.20
2023,05,26,20,10,20.10
2023,05,26,20,11,20.00
2023,05,26,20,12,19.90
2023,05,26,20,13,19.80
2023,05,26,20,14,19.70
2023,05,26,20,15,19.60
2023,05,26,20,16,19.60
2023,05,26,20,17,19.50
2023,05,26,20,18,19.40
2023,05,26,20,19,19.30
2023,05,26,20,20,19.30
2023,05,26,20,21,19.20
2023,05,26,20,22,19.20
2023,05,26,20,23,19.10
2023,05,26,20,24,19.10
2023,05,26,20,25,19.00
2023,05,26,20,26,18.90
2023,05,26,20,27,18.90
2023,05,26,20,28,18.80
2023,05,26,20,29,18.80
2023,05,26,20,30,18.70
2023,05,26,20,31,18.70
2023,05,26,20,32,18.60
2023,05,26,20,33,18.60
2023,05,26,20,34,18.60
2023,05,26,20,35,18.60
2023,05,26,20,36,18.60
2023,05,26,20,37,18.60
2023,05,26,20,38,18.60
2023,05,26,20,39,18.60
2023,05,26,20,40,18.60
2023,05,26,20,41,18.60
2023,05,26,20,42,18.60
2023,05,26,20,43,18.60
